Weather History for Garrison, ND

Change the Weather History Date:

Friday, April 26, 2013

  Actual Average Record
Temperature  
Mean Temperature 54 °F -  
Max Temperature 74 °F 58 °F 75 °F (2007)
Min Temperature 33 °F 33 °F 16 °F (2002)
Degree Days  
Heating Degree Days 11    
Month to date heating degree days 913  
Growing Degree Days 4 (Base 50)    
Moisture  
Dew Point 32 °F    
Average Humidity 51    
Maximum Humidity 82    
Minimum Humidity 20    
Precipitation  
Precipitation 0.00 in - - ()
Month to date precipitation 1.79  
Year to date precipitation 3.86  
Sea Level Pressure  
Sea Level Pressure 29.98 in    
Wind  
Wind Speed 7 mph (WSW)    
Max Wind Speed 17 mph    
Max Gust Speed 23 mph    
Averages and records for this station are not official NWS values.
T = Trace of Precipitation, MM = Missing Value Source: NWS Daily Summary

Daily Weather History Graph

Daily Weather History Graph

Search for Another Location

Airport:

Trip Planner

Search our weather history database for the weather conditions in past years. The results will help you decide how hot, cold, wet, or windy it might be!

Date:

Astronomy

Apr. 26, 2013 Rise Set
Actual Time 6:36 AM CDT 8:51 PM CDT
Civil Twilight 6:02 AM CDT 9:25 PM CDT
Nautical Twilight 5:20 AM CDT 10:07 PM CDT
Astronomical Twilight 4:33 AM CDT 10:55 PM CDT
Moon 10:22 PM CDT (4/26) 7:01 AM CDT (4/26)
Length of Visible Light 15h 22m
Length of Day
14h 15m
Full, 99% of the Moon is Illuminated
Apr 26
Full
May 2
Last Quarter
May 9
New
May 17
First Quarter
May 24
Full

Hourly Weather History & Observations

Time (CDT) Temp. Windchill Dew Point Humidity Pressure Visibility Wind Dir Wind Speed Gust Speed Precip Events Conditions
12:52 AM 35.1 °F - 30.9 °F 85% 29.91 in - Calm Calm - N/A   Unknown
1:52 AM 35.1 °F 32.2 °F 30.0 °F 82% 29.91 in - WSW 3.5 mph - N/A   Unknown
2:52 AM 35.1 °F - 30.0 °F 82% 29.92 in - Calm Calm - N/A   Unknown
3:52 AM 35.1 °F 32.2 °F 30.0 °F 82% 29.92 in - SW 3.5 mph - N/A   Unknown
4:52 AM 36.0 °F 32.1 °F 30.9 °F 82% 29.93 in - WSW 4.6 mph - N/A   Unknown
5:52 AM 35.1 °F 31.0 °F 28.9 °F 78% 29.95 in - West 4.6 mph - N/A   Unknown
6:52 AM 36.0 °F 33.3 °F 28.9 °F 76% 29.97 in - WSW 3.5 mph - N/A   Unknown
7:52 AM 39.0 °F 36.8 °F 30.9 °F 73% 30.00 in - WSW 3.5 mph - N/A   Unknown
8:52 AM 46.0 °F 43.1 °F 34.0 °F 63% 30.02 in - West 5.8 mph - N/A   Unknown
9:52 AM 52.0 °F - 36.0 °F 54% 30.04 in - West 6.9 mph - N/A   Unknown
10:52 AM 62.1 °F - 37.0 °F 39% 30.04 in - West 6.9 mph - N/A   Unknown
11:52 AM 66.0 °F - 37.0 °F 34% 30.04 in - WSW 6.9 mph - N/A   Unknown
12:52 PM 68.0 °F - 34.0 °F 28% 30.04 in - West 8.1 mph - N/A   Unknown
1:52 PM 70.0 °F - 30.9 °F 24% 30.01 in - West 13.8 mph 19.6 mph N/A   Unknown
2:52 PM 71.1 °F - 30.9 °F 23% 30.00 in - WSW 13.8 mph 23.0 mph N/A   Unknown
3:52 PM 72.0 °F - 30.0 °F 21% 30.00 in - WSW 10.4 mph - N/A   Unknown
4:52 PM 73.0 °F - 30.0 °F 20% 29.99 in - WSW 10.4 mph - N/A   Unknown
5:52 PM 73.0 °F - 30.0 °F 20% 29.98 in - WSW 10.4 mph 18.4 mph N/A   Unknown
6:52 PM 72.0 °F - 28.9 °F 20% 29.98 in - SW 9.2 mph - N/A   Unknown
7:52 PM 66.0 °F - 35.1 °F 32% 29.97 in - South 4.6 mph - N/A   Unknown
8:52 PM 57.9 °F - 30.0 °F 35% 29.96 in - Calm Calm - N/A   Unknown
9:52 PM 54.0 °F - 30.9 °F 41% 29.98 in - South 3.5 mph - N/A   Unknown
10:52 PM 51.1 °F - 30.0 °F 44% 29.97 in - Calm Calm - N/A   Unknown
11:52 PM 48.9 °F - 30.9 °F 50% 29.96 in - South 4.6 mph - N/A   Unknown